Location: Clermont
(50.2608°N, 4.3172°E)
Time: 10:09:14
(UTC+00:00)

Cosmos 2333 Rocket - Pass Details

Date: 13 August 2020
Orbit: 837 x 864 km, 70.8° (Epoch: 20 September)

Event Time Altitude Azimuth Distance (km) Brightness Sun altitude
Rises 19:44:17 0° 329° (NNW) 3,456 6.7 -6.4°
Reaches altitude 10° 19:48:04 10° 354° (N) 2,517 5.3 -6.9°
Maximum altitude 19:51:08 14° 26° (NNE) 2,213 4.5 -7.3°
Drops below altitude 10° 19:54:12 10° 58° (ENE) 2,510 4.4 -7.8°
Enters shadow 19:57:49 - 82° (E) 3,402 4.9 -8.2°
